Lubbock, TX

4:08 AM CST on January 16, 2018 (GMT -0600)
Lubbock International

Weather History for KLBB - April, 2012

Change the Weather History Date:

Monday, April 23, 2012

  Actual Average Record
Temperature  
Mean Temperature 65 °F 63 °F  
Max Temperature 79 °F 78 °F 97 °F (1989)
Min Temperature 51 °F 48 °F 30 °F (1928)
Degree Days  
Heating Degree Days 0 4  
Month to date heating degree days 52 157  
Since 1 July heating degree days 2950 3311  
Cooling Degree Days 0 2  
Month to date cooling degree days 61 31  
Year to date cooling degree days 113 38  
Growing Degree Days 16 (Base 50)    
Moisture  
Dew Point 37 °F    
Average Humidity 49    
Maximum Humidity 77    
Minimum Humidity 20    
Precipitation  
Precipitation T in 0.05 in 0.78 in (1994)
Month to date precipitation 0.88 1.01  
Year to date precipitation 2.17 3.51  
Snow  
Snow 0.00 in 0.00 in 0.00 in (2002)
Month to date snowfall 0.0 0.2  
Since 1 July snowfall 6.8 8.2  
Snow Depth 0.00 in    
Sea Level Pressure  
Sea Level Pressure 30.09 in    
Wind  
Wind Speed 12 mph (SE)    
Max Wind Speed 24 mph    
Max Gust Speed 28 mph    
Visibility 10 miles    
Events Rain    
T = Trace of Precipitation, MM = Missing Value Source: NWS Daily Summary

Daily Weather History Graph

Daily Weather History Graph

Search for Another Location

Airport or City:

Trip Planner

Search our weather history database for the weather conditions in past years. The results will help you decide how hot, cold, wet, or windy it might be!

Date:

Astronomy

Apr. 23, 2012 Rise Set
Actual Time 7:06 AM CDT 8:24 PM CDT
Civil Twilight 6:40 AM CDT 8:50 PM CDT
Nautical Twilight 6:09 AM CDT 9:22 PM CDT
Astronomical Twilight 5:37 AM CDT 9:54 PM CDT
Moon 8:25 AM CDT (4/23) 10:49 PM CDT (4/23)
Length of Visible Light 14h 10m
Length of Day
13h 18m
Waxing Crescent, 5% of the Moon is Illuminated
Apr 23
Waxing Crescent
Apr 29
First Quarter
May 5
Full
May 12
Last Quarter
May 20
New

Hourly Weather History & Observations

Time (CDT) Temp. Dew Point Humidity Pressure Visibility Wind Dir Wind Speed Gust Speed Precip Events Conditions
12:53 AM 57.9 °F 37.9 °F 47% 30.12 in 10.0 mi ESE 16.1 mph - N/A   Partly Cloudy
1:53 AM 57.0 °F 37.9 °F 49% 30.14 in 10.0 mi ESE 13.8 mph - N/A   Scattered Clouds
2:53 AM 55.0 °F 37.9 °F 53% 30.14 in 10.0 mi ESE 6.9 mph - N/A   Scattered Clouds
3:53 AM 55.9 °F 37.9 °F 51% 30.13 in 10.0 mi SE 13.8 mph - 0.00 in Rain Light Rain
4:53 AM 55.0 °F 37.9 °F 53% 30.16 in 10.0 mi ENE 11.5 mph - 0.00 in   Mostly Cloudy
5:53 AM 53.1 °F 41.0 °F 64% 30.20 in 10.0 mi North 6.9 mph - 0.00 in Rain Light Rain
6:53 AM 52.0 °F 44.1 °F 74% 30.19 in 10.0 mi NNE 3.5 mph - 0.00 in   Overcast
7:53 AM 53.1 °F 41.0 °F 64% 30.15 in 10.0 mi SE 17.3 mph - 0.00 in Rain Light Rain
8:53 AM 55.0 °F 37.0 °F 51% 30.18 in 10.0 mi SE 18.4 mph - 0.00 in Rain Light Rain
9:53 AM 55.0 °F 36.0 °F 49% 30.19 in 10.0 mi SSE 13.8 mph - 0.00 in   Mostly Cloudy
10:53 AM 57.0 °F 34.0 °F 42% 30.14 in 8.0 mi SSE 23.0 mph - N/A   Mostly Cloudy
11:53 AM 59.0 °F 34.0 °F 39% 30.18 in 10.0 mi SSE 10.4 mph - N/A   Mostly Cloudy
12:53 PM 63.0 °F 33.1 °F 33% 30.14 in 10.0 mi South 15.0 mph - N/A   Mostly Cloudy
1:53 PM 66.9 °F 34.0 °F 30% 30.11 in 9.0 mi SSE 16.1 mph - N/A   Scattered Clouds
2:46 PM 69.8 °F 35.6 °F 28% 30.18 in 8.0 mi SE 10.4 mph - N/A   Partly Cloudy
2:53 PM 71.1 °F 35.1 °F 27% 30.08 in 10.0 mi SSE 11.5 mph - N/A   Scattered Clouds
3:53 PM 73.9 °F 34.0 °F 23% 30.03 in 9.0 mi SE 15.0 mph - N/A   Partly Cloudy
4:53 PM 77.0 °F 34.0 °F 21% 29.99 in 10.0 mi SE 13.8 mph 24.2 mph N/A   Partly Cloudy
5:53 PM 77.0 °F 34.0 °F 21% 29.97 in 10.0 mi SE 12.7 mph - N/A   Partly Cloudy
6:53 PM 77.0 °F 34.0 °F 21% 29.95 in 10.0 mi SE 12.7 mph - N/A   Partly Cloudy
7:53 PM 75.9 °F 35.1 °F 23% 29.95 in 10.0 mi South 13.8 mph - N/A   Partly Cloudy
8:53 PM 69.1 °F 36.0 °F 30% 29.97 in 10.0 mi SE 6.9 mph - N/A   Partly Cloudy
9:53 PM 64.9 °F 37.0 °F 36% 29.99 in 10.0 mi ESE 9.2 mph - N/A   Partly Cloudy
10:53 PM 62.1 °F 37.0 °F 39% 30.00 in 10.0 mi SE 9.2 mph - N/A   Mostly Cloudy
11:53 PM 60.1 °F 37.9 °F 44% 29.99 in 10.0 mi SE 5.8 mph - N/A   Scattered Clouds